When you browse on this site, cookies collect data to enhance your experience and personalize the content and advertising you see.
Visit our Privacy Policy to learn more. By continuing to use the site, you agree to this use of cookies and data.
  • en Suisse
  • Liste des pays
  • À 7 jours
  • Température de l'eau
  • Carte météo
  • Widgets météo
  • user-avatar
    Se connecter

    Météo par heure à Straubing

    Ce jour, 25 Mai, Lundi

    Heure Température Précipitation Vent Pression Humidité
    00:00 +9°C° 0.1 mm 2 m/s 743 mmHg 89%
    01:00 +9°C° 0.1 mm 2 m/s 743 mmHg 91%
    02:00 +9°C° 0 mm 2 m/s 743 mmHg 92%
    03:00 +9°C° 0 mm 2 m/s 743 mmHg 93%
    04:00 +9°C° 0 mm 2 m/s 743 mmHg 94%
    05:00 +10°C° 0 mm 2 m/s 743 mmHg 94%
    06:00 +10°C° 0 mm 3 m/s 743 mmHg 93%
    07:00 +10°C° 0 mm 4 m/s 743 mmHg 92%
    08:00 +12°C° 0.2 mm 4 m/s 743 mmHg 86%
    09:00 +13°C° 0.2 mm 5 m/s 743 mmHg 80%
    10:00 +14°C° 0.2 mm 5 m/s 743 mmHg 74%
    11:00 +15°C° 0.4 mm 5 m/s 743 mmHg 72%
    12:00 +15°C° 0.4 mm 6 m/s 743 mmHg 70%
    13:00 +16°C° 0.4 mm 6 m/s 742 mmHg 68%
    14:00 +16°C° 0.4 mm 6 m/s 742 mmHg 69%
    15:00 +16°C° 0.4 mm 6 m/s 742 mmHg 70%
    16:00 +16°C° 0.4 mm 6 m/s 742 mmHg 72%
    17:00 +15°C° 0.3 mm 5 m/s 742 mmHg 75%
    18:00 +14°C° 0.3 mm 4 m/s 743 mmHg 78%
    19:00 +12°C° 0.3 mm 3 m/s 743 mmHg 81%
    20:00 +11°C° 0 mm 3 m/s 743 mmHg 83%
    21:00 +10°C° 0 mm 2 m/s 744 mmHg 86%
    22:00 +10°C° 0 mm 1 m/s 744 mmHg 88%
    23:00 +9°C° 0 mm 1 m/s 744 mmHg 90%

    Demain, 26 Mai, Mardi

    Heure Température Précipitation Vent Pression Humidité
    00:00 +8°C° 0 mm 1 m/s 745 mmHg 91%
    01:00 +8°C° 0 mm 1 m/s 745 mmHg 93%
    02:00 +8°C° 0 mm 1 m/s 745 mmHg 93%
    03:00 +8°C° 0 mm 1 m/s 745 mmHg 92%
    04:00 +8°C° 0 mm 1 m/s 745 mmHg 92%
    05:00 +9°C° 0 mm 1 m/s 745 mmHg 90%
    06:00 +10°C° 0 mm 1 m/s 745 mmHg 88%
    07:00 +10°C° 0 mm 2 m/s 745 mmHg 85%
    08:00 +13°C° 0.1 mm 2 m/s 745 mmHg 79%
    09:00 +15°C° 0.1 mm 2 m/s 745 mmHg 72%
    10:00 +16°C° 0.1 mm 3 m/s 746 mmHg 66%
    11:00 +17°C° 0.1 mm 3 m/s 745 mmHg 61%
    12:00 +18°C° 0.1 mm 3 m/s 745 mmHg 57%
    13:00 +19°C° 0.1 mm 4 m/s 745 mmHg 53%
    14:00 +19°C° 0 mm 4 m/s 745 mmHg 52%
    15:00 +19°C° 0 mm 4 m/s 744 mmHg 51%
    16:00 +19°C° 0 mm 4 m/s 744 mmHg 49%
    17:00 +18°C° 0 mm 3 m/s 744 mmHg 56%
    18:00 +17°C° 0 mm 3 m/s 744 mmHg 62%
    19:00 +15°C° 0 mm 2 m/s 745 mmHg 69%
    20:00 +14°C° 0 mm 2 m/s 745 mmHg 74%
    21:00 +12°C° 0 mm 2 m/s 745 mmHg 78%
    22:00 +10°C° 0 mm 1 m/s 746 mmHg 83%
    23:00 +10°C° 0 mm 1 m/s 746 mmHg 85%

    Après-demain, 27 Mai, Mercredi

    Heure Température Précipitation Vent Pression Humidité
    00:00 +9°C° 0 mm 1 m/s 745 mmHg 87%
    01:00 +9°C° 0 mm 1 m/s 745 mmHg 89%
    02:00 +8°C° 0 mm 1 m/s 745 mmHg 89%
    03:00 +7°C° 0 mm 0 m/s 745 mmHg 90%
    04:00 +7°C° 0 mm 0 m/s 745 mmHg 91%
    05:00 +9°C° 0 mm 0 m/s 745 mmHg 85%
    06:00 +11°C° 0 mm 0 m/s 745 mmHg 79%
    07:00 +13°C° 0 mm 0 m/s 745 mmHg 73%
    08:00 +14°C° 0 mm 0 m/s 745 mmHg 66%
    09:00 +18°C° 0 mm 1 m/s 745 mmHg 58%
    10:00 +20°C° 0 mm 1 m/s 745 mmHg 50%
    11:00 +21°C° 0 mm 1 m/s 744 mmHg 47%
    12:00 +22°C° 0 mm 1 m/s 744 mmHg 44%
    13:00 +23°C° 0 mm 1 m/s 744 mmHg 41%
    14:00 +23°C° 0 mm 2 m/s 743 mmHg 41%
    15:00 +23°C° 0 mm 2 m/s 743 mmHg 42%
    16:00 +23°C° 0 mm 2 m/s 743 mmHg 43%
    17:00 +20°C° 0 mm 2 m/s 743 mmHg 52%
    18:00 +19°C° 0 mm 2 m/s 743 mmHg 60%
    19:00 +18°C° 0 mm 1 m/s 743 mmHg 68%
    20:00 +16°C° 0 mm 1 m/s 743 mmHg 72%
    21:00 +15°C° 0 mm 1 m/s 743 mmHg 75%
    22:00 +14°C° 0 mm 1 m/s 743 mmHg 78%
    23:00 +14°C° 0 mm 1 m/s 743 mmHg 80%

    28 Mai, Jeudi

    Heure Température Précipitation Vent Pression Humidité
    00:00 +14°C° 0 mm 1 m/s 743 mmHg 82%
    01:00 +14°C° 0 mm 1 m/s 743 mmHg 83%
    02:00 +13°C° 0 mm 2 m/s 742 mmHg 87%
    03:00 +12°C° 0 mm 2 m/s 742 mmHg 90%
    04:00 +10°C° 0 mm 2 m/s 742 mmHg 94%
    05:00 +12°C° 0 mm 2 m/s 742 mmHg 90%
    06:00 +13°C° 0 mm 2 m/s 742 mmHg 86%
    07:00 +14°C° 0 mm 2 m/s 742 mmHg 82%
    08:00 +15°C° 0.1 mm 2 m/s 742 mmHg 76%
    09:00 +17°C° 0.1 mm 2 m/s 741 mmHg 70%
    10:00 +18°C° 0.1 mm 3 m/s 741 mmHg 64%
    11:00 +18°C° 0.1 mm 3 m/s 741 mmHg 60%
    12:00 +19°C° 0.1 mm 3 m/s 741 mmHg 55%
    13:00 +20°C° 0.1 mm 3 m/s 740 mmHg 51%
    14:00 +20°C° 0 mm 3 m/s 740 mmHg 50%
    15:00 +19°C° 0 mm 3 m/s 740 mmHg 48%
    16:00 +19°C° 0 mm 3 m/s 739 mmHg 47%
    17:00 +18°C° 0 mm 3 m/s 739 mmHg 52%
    18:00 +16°C° 0 mm 3 m/s 739 mmHg 57%
    19:00 +14°C° 0 mm 3 m/s 739 mmHg 62%
    20:00 +13°C° 0 mm 2 m/s 739 mmHg 64%
    21:00 +12°C° 0 mm 2 m/s 740 mmHg 67%
    22:00 +9°C° 0 mm 2 m/s 740 mmHg 69%
    23:00 +9°C° 0 mm 2 m/s 740 mmHg 74%

    29 Mai, Vendredi

    Heure Température Précipitation Vent Pression Humidité
    00:00 +9°C° 0 mm 1 m/s 739 mmHg 78%
    01:00 +8°C° 0 mm 1 m/s 739 mmHg 82%
    02:00 +7°C° 0 mm 1 m/s 739 mmHg 84%
    03:00 +7°C° 0 mm 1 m/s 739 mmHg 86%
    04:00 +6°C° 0 mm 1 m/s 739 mmHg 89%
    05:00 +8°C° 0 mm 1 m/s 738 mmHg 82%
    06:00 +10°C° 0 mm 1 m/s 738 mmHg 76%
    07:00 +12°C° 0 mm 1 m/s 738 mmHg 69%
    08:00 +14°C° 0 mm 1 m/s 738 mmHg 62%
    09:00 +16°C° 0 mm 1 m/s 738 mmHg 56%
    10:00 +19°C° 0 mm 1 m/s 737 mmHg 49%
    11:00 +19°C° 0 mm 1 m/s 737 mmHg 47%
    12:00 +19°C° 0 mm 1 m/s 736 mmHg 46%
    13:00 +20°C° 0 mm 1 m/s 736 mmHg 44%
    14:00 +20°C° 0 mm 1 m/s 736 mmHg 44%
    15:00 +19°C° 0 mm 2 m/s 735 mmHg 44%
    16:00 +19°C° 0 mm 2 m/s 735 mmHg 43%
    17:00 +18°C° 0 mm 2 m/s 735 mmHg 52%
    18:00 +17°C° 0 mm 2 m/s 735 mmHg 61%
    19:00 +15°C° 0 mm 2 m/s 735 mmHg 70%
    20:00 +14°C° 0 mm 2 m/s 736 mmHg 74%
    21:00 +12°C° 0 mm 2 m/s 736 mmHg 78%
    22:00 +10°C° 0 mm 2 m/s 736 mmHg 82%
    23:00 +9°C° 0 mm 2 m/s 736 mmHg 83%

    30 Mai, Samedi

    Heure Température Précipitation Vent Pression Humidité
    00:00 +9°C° 0 mm 2 m/s 736 mmHg 84%
    01:00 +9°C° 0 mm 1 m/s 737 mmHg 84%
    02:00 +9°C° 0 mm 1 m/s 736 mmHg 86%
    03:00 +8°C° 0 mm 1 m/s 736 mmHg 88%
    04:00 +7°C° 0 mm 1 m/s 736 mmHg 90%
    05:00 +9°C° 0 mm 1 m/s 736 mmHg 84%
    06:00 +10°C° 0 mm 1 m/s 737 mmHg 78%
    07:00 +10°C° 0 mm 2 m/s 737 mmHg 72%
    08:00 +13°C° 0 mm 2 m/s 737 mmHg 64%
    09:00 +14°C° 0 mm 2 m/s 737 mmHg 56%
    10:00 +16°C° 0 mm 3 m/s 737 mmHg 48%
    11:00 +17°C° 0 mm 3 m/s 737 mmHg 45%
    12:00 +17°C° 0 mm 3 m/s 736 mmHg 42%
    13:00 +18°C° 0 mm 3 m/s 736 mmHg 38%
    14:00 +18°C° 0 mm 3 m/s 736 mmHg 40%
    15:00 +18°C° 0 mm 3 m/s 736 mmHg 42%
    16:00 +18°C° 0 mm 3 m/s 736 mmHg 44%
    17:00 +17°C° 0 mm 3 m/s 736 mmHg 51%
    18:00 +16°C° 0 mm 2 m/s 736 mmHg 58%
    19:00 +14°C° 0 mm 2 m/s 736 mmHg 65%
    20:00 +13°C° 0 mm 2 m/s 736 mmHg 67%
    21:00 +11°C° 0 mm 1 m/s 736 mmHg 69%
    22:00 +10°C° 0 mm 1 m/s 736 mmHg 71%
    23:00 +9°C° 0 mm 1 m/s 736 mmHg 75%
    Voir plus